Preview of NWS' New Version of Forecast
This preview is not operational and should not be used for support decisions.

Regional Weather Roundup (RWR)

Issued by Gray - Portland, ME (GYX)

                            
083 
ASUS41 KGYX 210305
RWRGYX
WEATHER ROUNDUP FOR MAINE AND NEW HAMPSHIRE
NATIONAL WEATHER SERVICE GRAY ME
1000 PM EST TUE FEB 20 2018

MEZ002-005-006-010-012-015-018-020-021-024-026-027-029-210400-
MAINE
  
CITY           SKY/WX    TMP DP  RH WIND       PRES   REMARKS
PORTLAND       CLOUDY    39  39 100 NW3       30.28S FOG              
SANFORD        FOG       39  39 100 CALM      30.28S VSB 1/4          
BAR HARBOR     FOG       38  38 100 E6        30.28F VSB 1/4          
WISCASSET      FOG       35  35 100 CALM      30.28F VSB 1/2          
ROCKLAND       FOG       39  39 100 NE8       30.27F VSB 1/2          
FRYEBURG       CLOUDY    39  39 100 CALM      30.27S                  
LEWISTONAUBURN LGT RAIN  36  36 100 CALM      30.28R VSB 1/2          
AUGUSTA        FOG       36  36 100 W3        30.27S VSB 1/4          
WATERVILLE     FOG       36  36 100 CALM      30.22S VSB 1/4          
BANGOR         CLOUDY    37  37 100 CALM      30.28S FOG              
GREENVILLE       N/A     35  35 100 SE10      30.19S                  
MILLINOCKET    LGT RAIN  36  36 100 E5        30.28F FOG              
HOULTON        CLOUDY    32  31  96 SE9G16    30.28F FOG              
PRESQUE ISLE   CLOUDY    31  29  92 SE13      30.28S                  
FRENCHVILLE    CLOUDY    28  27  96 SE15      30.22F WCI  16          
CARIBOU        CLOUDY    32  28  85 SE13      30.26S                  
$$

NHZ002-005-008-009-011-012-014-210400-
NEW HAMPSHIRE
  
CITY           SKY/WX    TMP DP  RH WIND       PRES   REMARKS
PORTSMOUTH     FOG       40  40  99 CALM      30.27R VSB 1/8          
ROCHESTER      FOG       39  39 100 NW3       30.27R VSB 1/4          
NASHUA         FAIR      42  42 100 E3        30.27R                  
MANCHESTER     CLOUDY    43  42  97 CALM      30.26R                  
CONCORD        CLOUDY    44  43  96 SE5       30.27R FOG              
LACONIA        MOCLDY    37  36  96 CALM      30.26R                  
PLYMOUTH       CLOUDY    36  34  91 CALM      30.26S                  
BERLIN         FOG       36  36 100 CALM      30.19F VSB 1            
WHITEFIELD     CLOUDY    36  36 100 CALM      30.19S FOG              
JAFFREY        FAIR      41  32  70 CALM      30.26R                  
KEENE          FOG       36  35  96 CALM      30.26R VSB 1            
LEBANON        FAIR      39  37  92 CALM      30.21S                  
MT WASHINGTON  FOG       43  43 100 W61G72      N/A  VSB 0            
$$

VTZ005-007-008-210400-
VERMONT
  
CITY           SKY/WX    TMP DP  RH WIND       PRES   REMARKS
ST JOHNSBURY     N/A     39  39 100 MISG      30.17S                  
MONTPELIER     CLOUDY    52  49  89 S12       30.20S                  
BURLINGTON     CLOUDY    58  49  72 S17G23    30.13R                  
$$

MAZ007-012-024-CTZ003-RIZ002-NYZ038-NYZ072-210400-
SOUTHERN NEW ENGLAND AND NY
  
CITY           SKY/WX    TMP DP  RH WIND       PRES   REMARKS
BOSTON         FAIR      43  42  97 E6        30.27F                  
WORCESTER      FAIR      56  50  80 SW14      30.27S                  
NANTUCKET      FOG       45  45 100 SW17      30.36R VSB 1/4          
PROVIDENCE     FAIR      53  51  93 SW8       30.31S                  
HARTFORD       FAIR      56  51  84 S14       30.28S                  
ALBANY         MOCLDY    59  49  69 S9        30.22S                  
NEW YORK CITY  MOCLDY    56  49  77 S6        30.32R                  
$$

ANZ081-ANZ082-ANZ150-NHZ014-MEZ023>029-210400-
COASTAL MARINE OBSERVATIONS
  
STATION/POSITION TIME  TEMP    WIND        PRES    WAVE
                       AIR SEA DIR/SP/G            HT/PER
                 (UTC) (F)     (DEG/KT/KT) (MB)    (FT/S)
JEFFREYS LEDGE   0236      42                N/A     4/11
GEORGES BANK BUO 0150   53 62              1024.8   12/ 8
$$

.............KEY..............
   WCI - WIND CHILL
   TC  - TEMPERATURE IN CELSIUS
   VSB - VISIBILITY IN MILES
   HX  - HEAT INDEX
   FAIR- INDICATES FEW OR NO CLOUDS BELOW 12,000 FT, WITH NO 
         SIGNIFICANT WEATHER AND/OR OBSTRUCTIONS TO VISIBILITY.